Location: Unnamed
(51.5169°N, 0.1311°W)
Time: 11:00:46
(UTC+00:00)

ISS - Visible Passes

Search period start: 09 November 2025 00:00
Search period end: 19 November 2025 00:00
Orbit: 415 x 421 km, 51.6° (Epoch: 08 November)

Date Brightness Start Highest point End Pass type
(mag) Time Alt. Az. Time Alt. Az. Time Alt. Az.
13 Nov -1.1 18:47:48 10° SSW 18:48:28 14° SSW 18:48:28 14° SSW visible
14 Nov -1.9 18:00:22 10° S 18:02:36 19° SSE 18:02:36 19° SSE visible
15 Nov -1.5 17:13:19 10° S 17:15:00 13° SE 17:16:38 10° ESE visible
15 Nov -1.8 18:47:55 10° SW 18:49:34 25° SW 18:49:34 25° SW visible
16 Nov -3.0 18:00:05 10° SW 18:03:11 36° SSE 18:03:30 35° SE visible
16 Nov -0.2 19:36:25 10° W 19:36:25 10° W 19:36:25 10° W visible
17 Nov -2.3 17:12:22 10° SSW 17:15:13 26° SSE 17:17:22 14° E visible
17 Nov -2.0 18:48:20 10° WSW 18:50:18 32° WSW 18:50:18 32° WSW visible
18 Nov -3.7 18:00:17 10° WSW 18:03:36 62° SSE 18:04:06 53° ESE visible
18 Nov -0.1 19:36:59 10° W 19:37:01 10° W 19:37:01 10° W visible
